LARES-2

Last updated on Mon Oct 27 2025 00:03:45 GMT+0000 (Coordinated Universal Time)

1 53105U 22080A 25298.39260325 -.00000022 00000+0 00000+0 0 9995 2 53105 70.1712 25.8333 0004098 38.9683 321.1310 6.38964991 76667
UTC large
Height (km)
Speed (km/s)
/
Latitude / Longitude
Inclination (degrees)
Orbital Period (minutes)
Azimuth
Elevation
Range (km)
Doppler Factor

Next 0 passes for location: London (51.5072 / 0.1276)

Sorry there are no passes over London.